| time (UTC) | temp F | wind direction | speed knots | gust knots | rain 1hr in | rain 24hr in | rain mn in | humidity % | barometer mb |
| 20260503225004 | 89 | 303 | 0.9 | 1.7 | 0.00 | 0.00 | 0.00 | 22 | 1008.1 |
| 20260503224504 | 89 | 341 | 0.9 | 2.6 | 0.00 | 0.00 | 0.00 | 27 | 1008.2 |
| 20260503224005 | 89 | 326 | 0.9 | 1.7 | 0.00 | 0.00 | 0.00 | 25 | 1008.3 |
| 20260503222504 | 89 | 57 | 1.7 | 2.6 | 0.00 | 0.00 | 0.00 | 27 | 1008.5 |
| 20260503222005 | 89 | 9 | 0.9 | 1.7 | 0.00 | 0.00 | 0.00 | 27 | 1008.6 |
| 20260503221505 | 88 | 9 | 1.7 | 2.6 | 0.00 | 0.00 | 0.00 | 26 | 1008.6 |
| 20260503221004 | 88 | 11 | 0.9 | 1.7 | 0.00 | 0.00 | 0.00 | 29 | 1008.8 |
| 20260503220504 | 88 | 349 | 1.7 | 2.6 | 0.00 | 0.00 | 0.00 | 29 | 1008.8 |
| 20260503220004 | 88 | 88 | 1.7 | 2.6 | 0.00 | 0.00 | 0.00 | 29 | 1008.9 |
| 20260503215504 | 88 | 357 | 0.9 | 2.6 | 0.00 | 0.00 | 0.00 | 28 | 1009.0 |
| 20260503215004 | 88 | 358 | 1.7 | 4.3 | 0.00 | 0.00 | 0.00 | 29 | 1008.9 |
| 20260503214504 | 88 | 106 | 1.7 | 4.3 | 0.00 | 0.00 | 0.00 | 30 | 1009.1 |
| 20260503214004 | 87 | 70 | 1.7 | 6.1 | 0.00 | 0.00 | 0.00 | 29 | 1009.1 |
| 20260503213504 | 87 | 4 | 0.9 | 1.7 | 0.00 | 0.00 | 0.00 | 32 | 1009.1 |
| 20260503213004 | 87 | 350 | 0.9 | 4.3 | 0.00 | 0.00 | 0.00 | 31 | 1009.2 |
| 20260503212005 | 87 | 73 | 0.9 | 1.7 | 0.00 | 0.00 | 0.00 | 32 | 1009.3 |
| 20260503211504 | 87 | 23 | 0.9 | 1.7 | 0.00 | 0.00 | 0.00 | 30 | 1009.2 |
| 20260503211004 | 86 | 64 | 1.7 | 4.3 | 0.00 | 0.00 | 0.00 | 29 | 1009.3 |
| 20260503210005 | 86 | 10 | 1.7 | 4.3 | 0.00 | 0.00 | 0.00 | 33 | 1009.5 |
| 20260503205004 | 86 | 332 | 2.6 | 4.3 | 0.00 | 0.00 | 0.00 | 35 | 1009.6 |
| 20260503204504 | 86 | 39 | 1.7 | 5.2 | 0.00 | 0.00 | 0.00 | 34 | 1009.6 |
| 20260503204005 | 85 | 18 | 1.7 | 5.2 | 0.00 | 0.00 | 0.00 | 33 | 1009.6 |
| 20260503203504 | 85 | 19 | 1.7 | 2.6 | 0.00 | 0.00 | 0.00 | 34 | 1009.8 |
| 20260503203004 | 86 | 1 | 0.9 | 2.6 | 0.00 | 0.00 | 0.00 | 33 | 1009.8 |
| 20260503202505 | 85 | 41 | 1.7 | 4.3 | 0.00 | 0.00 | 0.00 | 34 | 1009.9 |
| 20260503202005 | 85 | 0 | 1.7 | 2.6 | 0.00 | 0.00 | 0.00 | 34 | 1010.0 |
| 20260503201504 | 85 | 45 | 0.9 | 1.7 | 0.00 | 0.00 | 0.00 | 33 | 1010.0 |
| 20260503201004 | 85 | 320 | 0.9 | 5.2 | 0.00 | 0.00 | 0.00 | 35 | 1010.1 |
| 20260503193005 | 83 | 60 | 1.7 | 2.6 | 0.00 | 0.00 | 0.00 | 38 | 1010.5 |
| 20260503192504 | 83 | 63 | 1.7 | 2.6 | 0.00 | 0.00 | 0.00 | 39 | 1010.6 |
| 20260503191504 | 82 | 344 | 0.9 | 2.6 | 0.00 | 0.00 | 0.00 | 42 | 1010.6 |
| 20260503191004 | 82 | 56 | 1.7 | 4.3 | 0.00 | 0.00 | 0.00 | 45 | 1010.7 |
| 20260503190005 | 82 | 15 | 1.7 | 4.3 | 0.00 | 0.00 | 0.00 | 44 | 1010.7 |
| 20260503185505 | 82 | 6 | 2.6 | 4.3 | 0.00 | 0.00 | 0.00 | 48 | 1010.8 |
| 20260503185005 | 82 | 58 | 0.9 | 2.6 | 0.00 | 0.00 | 0.00 | 46 | 1010.8 |
| 20260503184504 | 81 | 74 | 1.7 | 1.7 | 0.00 | 0.00 | 0.00 | 50 | 1010.8 |
| 20260503184004 | 81 | 56 | 1.7 | 2.6 | 0.00 | 0.00 | 0.00 | 53 | 1010.8 |
| 20260503183504 | 80 | 83 | 1.7 | 2.6 | 0.00 | 0.00 | 0.00 | 53 | 1010.8 |
| 20260503182505 | 78 | 29 | 0.9 | 2.6 | 0.00 | 0.00 | 0.00 | 56 | 1011.0 |
| 20260503182006 | 78 | 51 | 0.9 | 1.7 | 0.00 | 0.00 | 0.00 | 55 | 1011.0 |
| 20260503181505 | 78 | 74 | 1.7 | 2.6 | 0.00 | 0.00 | 0.00 | 59 | 1011.0 |
| 20260503181004 | 78 | 89 | 1.7 | 2.6 | 0.00 | 0.00 | 0.00 | 56 | 1011.0 |
| 20260503180504 | 77 | 82 | 1.7 | 2.6 | 0.00 | 0.00 | 0.00 | 59 | 1011.1 |
| 20260503180005 | 77 | 85 | 1.7 | 2.6 | 0.00 | 0.00 | 0.00 | 60 | 1011.1 |
| 20260503175504 | 76 | 91 | 0.9 | 4.3 | 0.00 | 0.00 | 0.00 | 60 | 1011.1 |
| 20260503175004 | 76 | 352 | 0.9 | 2.6 | 0.00 | 0.00 | 0.00 | 60 | 1011.2 |
| 20260503174505 | 76 | 74 | 0.9 | 2.6 | 0.00 | 0.00 | 0.00 | 61 | 1011.2 |
| 20260503174004 | 76 | 87 | 1.7 | 2.6 | 0.00 | 0.00 | 0.00 | 60 | 1011.3 |
| 20260503173504 | 75 | 73 | 1.7 | 2.6 | 0.00 | 0.00 | 0.00 | 60 | 1011.3 |
| 20260503173004 | 75 | 42 | 0.9 | 2.6 | 0.00 | 0.00 | 0.00 | 62 | 1011.3 |
| 20260503172505 | 74 | 96 | 1.7 | 4.3 | 0.00 | 0.00 | 0.00 | 63 | 1011.3 |
| 20260503172005 | 74 | 60 | 0.9 | 2.6 | 0.00 | 0.00 | 0.00 | 64 | 1011.3 |
| 20260503171004 | 73 | 97 | 1.7 | 4.3 | 0.00 | 0.00 | 0.00 | 66 | 1011.4 |
| 20260503170504 | 72 | 65 | 0.9 | 2.6 | 0.00 | 0.00 | 0.00 | 66 | 1011.5 |
| 20260503151006 | 57 | 83 | 0.9 | 1.7 | 0.00 | 0.00 | 0.00 | 90 | 1012.0 |
| 20260503150505 | 57 | 83 | 1.7 | 1.7 | 0.00 | 0.00 | 0.00 | 90 | 1012.0 |
| 20260503131005 | 52 | 202 | 0.9 | 1.7 | 0.00 | 0.00 | 0.00 | 91 | 1011.6 |
| 20260503130505 | 52 | 202 | 0.9 | 1.7 | 0.00 | 0.00 | 0.00 | 91 | 1011.5 |
| 20260503110506 | 53 | 141 | 0.0 | 0.0 | 0.00 | 0.00 | 0.00 | 90 | 1012.1 |
| 20260503081005 | 56 | 309 | 0.0 | 0.9 | 0.00 | 0.00 | 0.00 | 88 | 1012.4 |
| 20260503080505 | 56 | 309 | 0.0 | 1.7 | 0.00 | 0.00 | 0.00 | 88 | 1012.4 |
| 20260503072506 | 57 | 251 | 0.9 | 1.7 | 0.00 | 0.00 | 0.00 | 87 | 1012.5 |
| 20260503072005 | 58 | 198 | 1.7 | 1.7 | 0.00 | 0.00 | 0.00 | 87 | 1012.5 |
| 20260503071506 | 58 | 192 | 0.9 | 0.9 | 0.00 | 0.00 | 0.00 | 86 | 1012.5 |
| 20260503071006 | 58 | 192 | 0.0 | 1.7 | 0.00 | 0.00 | 0.00 | 86 | 1012.4 |
| 20260503070505 | 58 | 192 | 0.9 | 0.9 | 0.00 | 0.00 | 0.00 | 86 | 1012.4 |
| 20260503055005 | 61 | 353 | 3.5 | 5.2 | 0.00 | 0.00 | 0.00 | 83 | 1012.1 |
| 20260503054505 | 61 | 333 | 2.6 | 4.3 | 0.00 | 0.00 | 0.00 | 83 | 1012.2 |
| 20260503053506 | 62 | 17 | 0.9 | 1.7 | 0.00 | 0.00 | 0.00 | 81 | 1012.5 |
| 20260503053005 | 63 | 190 | 0.0 | 1.7 | 0.00 | 0.00 | 0.00 | 79 | 1012.5 |
| 20260503052506 | 63 | 190 | 0.0 | 1.7 | 0.00 | 0.00 | 0.00 | 79 | 1012.4 |
| 20260503052005 | 63 | 58 | 0.9 | 1.7 | 0.00 | 0.00 | 0.00 | 79 | 1012.4 |
| 20260503051505 | 63 | 331 | 1.7 | 2.6 | 0.00 | 0.00 | 0.00 | 79 | 1012.3 |
| 20260503050505 | 63 | 333 | 2.6 | 4.3 | 0.00 | 0.00 | 0.00 | 80 | 1012.5 |
| 20260503050006 | 63 | 326 | 1.7 | 2.6 | 0.00 | 0.00 | 0.00 | 79 | 1012.6 |
| 20260503045505 | 63 | 318 | 1.7 | 2.6 | 0.00 | 0.00 | 0.00 | 79 | 1012.6 |
| 20260503045006 | 63 | 338 | 2.6 | 5.2 | 0.00 | 0.00 | 0.00 | 80 | 1012.7 |
| 20260503044505 | 63 | 327 | 2.6 | 4.3 | 0.00 | 0.00 | 0.00 | 80 | 1012.8 |
| 20260503044005 | 63 | 346 | 2.6 | 4.3 | 0.00 | 0.00 | 0.00 | 80 | 1012.7 |
| 20260503043505 | 63 | 348 | 2.6 | 5.2 | 0.00 | 0.00 | 0.00 | 79 | 1012.7 |
| 20260503043005 | 63 | 340 | 2.6 | 5.2 | 0.00 | 0.00 | 0.00 | 78 | 1012.6 |
| 20260503042505 | 64 | 323 | 0.9 | 1.7 | 0.00 | 0.00 | 0.00 | 78 | 1012.7 |
| 20260503042005 | 64 | 264 | 1.7 | 4.3 | 0.00 | 0.00 | 0.00 | 78 | 1012.7 |
| 20260503041505 | 64 | 335 | 2.6 | 6.1 | 0.00 | 0.00 | 0.00 | 78 | 1012.6 |
| 20260503041005 | 64 | 336 | 4.3 | 7.0 | 0.00 | 0.00 | 0.00 | 78 | 1012.3 |
| 20260503040505 | 64 | 334 | 5.2 | 7.0 | 0.00 | 0.00 | 0.00 | 78 | 1012.4 |
| 20260503040005 | 64 | 343 | 2.6 | 4.3 | 0.00 | 0.00 | 0.00 | 77 | 1012.5 |
| 20260503035505 | 64 | 337 | 2.6 | 4.3 | 0.00 | 0.00 | 0.00 | 76 | 1012.3 |
| 20260503035006 | 64 | 315 | 0.9 | 1.7 | 0.00 | 0.00 | 0.00 | 75 | 1012.2 |
| 20260503034505 | 64 | 283 | 0.9 | 1.7 | 0.00 | 0.00 | 0.00 | 74 | 1012.2 |
| 20260503034006 | 65 | 271 | 1.7 | 2.6 | 0.00 | 0.00 | 0.00 | 74 | 1012.2 |
| 20260503033506 | 65 | 283 | 0.0 | 1.7 | 0.00 | 0.00 | 0.00 | 73 | 1012.2 |
| 20260503033007 | 65 | 236 | 3.5 | 7.0 | 0.00 | 0.00 | 0.00 | 73 | 1012.1 |
| 20260503032505 | 65 | 195 | 2.6 | 5.2 | 0.00 | 0.00 | 0.00 | 73 | 1012.0 |
| 20260503032005 | 65 | 240 | 5.2 | 10.4 | 0.00 | 0.00 | 0.00 | 72 | 1012.0 |
| 20260503031505 | 65 | 203 | 7.0 | 12.2 | 0.00 | 0.00 | 0.00 | 72 | 1012.1 |
| 20260503030505 | 66 | 206 | 6.1 | 10.4 | 0.00 | 0.00 | 0.00 | 72 | 1012.2 |
| 20260503030005 | 66 | 200 | 5.2 | 10.4 | 0.00 | 0.00 | 0.00 | 72 | 1012.1 |
| 20260503025505 | 66 | 207 | 5.2 | 8.7 | 0.00 | 0.00 | 0.00 | 72 | 1012.1 |
| 20260503025005 | 66 | 299 | 4.3 | 10.4 | 0.00 | 0.00 | 0.00 | 72 | 1012.1 |
| 20260503024005 | 67 | 203 | 7.8 | 14.8 | 0.00 | 0.00 | 0.00 | 71 | 1012.2 |
| 20260503023505 | 67 | 201 | 7.8 | 13.9 | 0.00 | 0.00 | 0.00 | 72 | 1012.1 |
| 20260503023006 | 68 | 182 | 11.3 | 17.4 | 0.00 | 0.00 | 0.00 | 71 | 1012.0 |
| 20260503022505 | 68 | 196 | 7.8 | 17.4 | 0.00 | 0.00 | 0.00 | 70 | 1011.9 |
| 20260503022005 | 69 | 186 | 6.1 | 15.6 | 0.00 | 0.00 | 0.00 | 68 | 1011.7 |
| 20260503021505 | 69 | 194 | 7.8 | 12.2 | 0.00 | 0.00 | 0.00 | 68 | 1011.5 |
| 20260503021005 | 70 | 179 | 5.2 | 8.7 | 0.00 | 0.00 | 0.00 | 67 | 1011.2 |
| 20260503020505 | 70 | 199 | 5.2 | 7.8 | 0.00 | 0.00 | 0.00 | 66 | 1011.1 |
| 20260503015505 | 71 | 190 | 5.2 | 7.8 | 0.00 | 0.00 | 0.00 | 64 | 1011.1 |
| 20260503015005 | 72 | 155 | 4.3 | 7.0 | 0.00 | 0.00 | 0.00 | 62 | 1011.0 |
| 20260503014505 | 72 | 196 | 2.6 | 7.0 | 0.00 | 0.00 | 0.00 | 62 | 1011.1 |
| 20260503014005 | 72 | 199 | 1.7 | 6.1 | 0.00 | 0.00 | 0.00 | 62 | 1011.0 |
| 20260503013505 | 72 | 170 | 3.5 | 7.0 | 0.00 | 0.00 | 0.00 | 62 | 1011.1 |
| 20260503013006 | 72 | 174 | 3.5 | 6.1 | 0.00 | 0.00 | 0.00 | 62 | 1011.0 |
| 20260503012505 | 72 | 152 | 2.6 | 5.2 | 0.00 | 0.00 | 0.00 | 61 | 1010.9 |
| 20260503011506 | 73 | 129 | 1.7 | 4.3 | 0.00 | 0.00 | 0.00 | 64 | 1010.9 |
| 20260503011006 | 73 | 44 | 0.0 | 1.7 | 0.00 | 0.00 | 0.00 | 64 | 1010.9 |
| 20260503010505 | 73 | 44 | 0.0 | 1.7 | 0.00 | 0.00 | 0.00 | 64 | 1010.8 |
| 20260503005505 | 73 | 77 | 0.0 | 1.7 | 0.00 | 0.00 | 0.00 | 63 | 1010.8 |
| 20260503005005 | 73 | 74 | 0.9 | 1.7 | 0.00 | 0.00 | 0.00 | 61 | 1010.9 |
| 20260503004506 | 73 | 338 | 0.9 | 1.7 | 0.00 | 0.00 | 0.00 | 64 | 1010.9 |
| 20260503004005 | 73 | 320 | 0.9 | 1.7 | 0.00 | 0.00 | 0.00 | 59 | 1010.8 |
| 20260503003504 | 73 | 320 | 0.0 | 1.7 | 0.00 | 0.00 | 0.00 | 59 | 1010.9 |
| 20260503003005 | 73 | 320 | 0.9 | 0.9 | 0.00 | 0.00 | 0.00 | 59 | 1010.9 |
| 20260503002505 | 73 | 288 | 0.9 | 1.7 | 0.00 | 0.00 | 0.00 | 61 | 1010.9 |
| 20260503002005 | 72 | 72 | 0.9 | 1.7 | 0.00 | 0.00 | 0.00 | 64 | 1010.9 |
| 20260503001506 | 72 | 72 | 0.9 | 1.7 | 0.00 | 0.00 | 0.00 | 65 | 1010.9 |
| 20260503000005 | 72 | 6 | 0.0 | 1.7 | 0.00 | 0.00 | 0.00 | 64 | 1011.1 |
| 20260502235505 | 71 | 5 | 0.9 | 1.7 | 0.00 | 0.00 | 0.00 | 65 | 1011.2 |
| 20260502234505 | 71 | 7 | 0.0 | 1.7 | 0.00 | 0.00 | 0.00 | 65 | 1011.3 |
| 20260502234005 | 71 | 7 | 0.9 | 0.9 | 0.00 | 0.00 | 0.00 | 65 | 1011.4 |
| 20260502233005 | 71 | 6 | 0.9 | 1.7 | 0.00 | 0.00 | 0.00 | 63 | 1011.5 |
| 20260502232505 | 71 | 25 | 0.9 | 0.9 | 0.00 | 0.00 | 0.00 | 62 | 1011.6 |
| 20260502230505 | 71 | 75 | 1.7 | 2.6 | 0.00 | 0.00 | 0.00 | 62 | 1011.9 |
| 20260502230005 | 71 | 77 | 0.9 | 2.6 | 0.00 | 0.00 | 0.00 | 61 | 1012.0 |
| 20260502225504 | 71 | 9 | 1.7 | 1.7 | 0.00 | 0.00 | 0.00 | 63 | 1012.0 |